| time (UTC) | temp C | wind direction | speed KPH | gust KPH | rain 1hr cm | rain 24hr cm | rain mn cm | humidity % | barometer mb |
| 20260504081837 | 17 | 328 | 3.2 | 25.7 | 0.00 | 0.00 | 0.00 | 36 | 1023.9 |
| 20260504080937 | 17 | 301 | 6.4 | 20.9 | 0.00 | 0.00 | 0.00 | 37 | 1023.8 |
| 20260504045137 | 11 | 314 | 1.6 | 3.2 | 0.00 | 0.03 | 0.00 | 63 | 1022.9 |
| 20260504044237 | 10 | 314 | 0.0 | 3.2 | 0.00 | 0.03 | 0.00 | 64 | 1022.7 |
| 20260504043337 | 10 | 314 | 0.0 | 3.2 | 0.00 | 0.03 | 0.00 | 64 | 1022.7 |
| 20260504041537 | 10 | 314 | 0.0 | 3.2 | 0.00 | 0.03 | 0.00 | 63 | 1022.7 |
| 20260504040637 | 10 | 314 | 0.0 | 6.4 | 0.00 | 0.03 | 0.00 | 61 | 1022.6 |
| 20260504033937 | 10 | 314 | 1.6 | 3.2 | 0.00 | 0.03 | 0.00 | 63 | 1022.4 |
| 20260504033037 | 10 | 314 | 0.0 | 3.2 | 0.00 | 0.03 | 0.00 | 64 | 1022.4 |
| 20260504032137 | 10 | 316 | 0.0 | 3.2 | 0.00 | 0.03 | 0.00 | 63 | 1022.3 |
| 20260504031237 | 10 | 345 | 3.2 | 6.4 | 0.00 | 0.03 | 0.00 | 64 | 1022.3 |
| 20260504030337 | 9 | 1 | 0.0 | 3.2 | 0.00 | 0.03 | 0.00 | 65 | 1022.3 |
| 20260504025437 | 9 | 1 | 0.0 | 3.2 | 0.00 | 0.03 | 0.00 | 64 | 1022.2 |
| 20260504024537 | 10 | 1 | 0.0 | 3.2 | 0.00 | 0.03 | 0.00 | 63 | 1022.2 |
| 20260504023637 | 10 | 1 | 0.0 | 3.2 | 0.00 | 0.03 | 0.00 | 63 | 1022.2 |
| 20260504022737 | 10 | 1 | 0.0 | 3.2 | 0.00 | 0.03 | 0.00 | 62 | 1022.2 |
| 20260504020937 | 10 | 2 | 1.6 | 3.2 | 0.00 | 0.03 | 0.00 | 61 | 1022.2 |
| 20260504020037 | 10 | 21 | 1.6 | 3.2 | 0.00 | 0.03 | 0.00 | 61 | 1022.3 |
| 20260504015137 | 10 | 29 | 0.0 | 3.2 | 0.00 | 0.03 | 0.00 | 60 | 1022.3 |
| 20260504014237 | 10 | 47 | 1.6 | 3.2 | 0.00 | 0.03 | 0.00 | 60 | 1022.2 |
| 20260504013337 | 10 | 65 | 1.6 | 3.2 | 0.00 | 0.03 | 0.00 | 59 | 1022.1 |
| 20260504011537 | 10 | 63 | 1.6 | 6.4 | 0.00 | 0.03 | 0.00 | 60 | 1022.0 |
| 20260504010637 | 10 | 18 | 0.0 | 3.2 | 0.00 | 0.03 | 0.00 | 60 | 1022.0 |
| 20260504005737 | 10 | 1 | 0.0 | 3.2 | 0.00 | 0.03 | 0.00 | 60 | 1022.0 |
| 20260504004837 | 10 | 1 | 1.6 | 3.2 | 0.00 | 0.03 | 0.00 | 59 | 1022.1 |
| 20260504003937 | 10 | 1 | 0.0 | 3.2 | 0.00 | 0.03 | 0.00 | 59 | 1022.0 |
| 20260504002137 | 10 | 3 | 0.0 | 3.2 | 0.00 | 0.03 | 0.00 | 58 | 1022.0 |
| 20260504001237 | 10 | 21 | 1.6 | 3.2 | 0.00 | 0.03 | 0.00 | 58 | 1021.9 |
| 20260504000337 | 10 | 22 | 0.0 | 3.2 | 0.00 | 0.03 | 0.00 | 57 | 1021.9 |
| 20260503235437 | 11 | 12 | 0.0 | 3.2 | 0.00 | 0.03 | 0.00 | 56 | 1021.9 |
| 20260503234537 | 11 | 318 | 0.0 | 9.7 | 0.00 | 0.03 | 0.00 | 55 | 1022.0 |
| 20260503233637 | 11 | 309 | 4.8 | 17.7 | 0.00 | 0.03 | 0.00 | 55 | 1021.9 |
| 20260503232737 | 11 | 310 | 6.4 | 11.3 | 0.00 | 0.03 | 0.00 | 55 | 1022.0 |
| 20260503231837 | 11 | 294 | 4.8 | 11.3 | 0.00 | 0.03 | 0.00 | 58 | 1022.0 |
| 20260503230937 | 10 | 292 | 0.0 | 3.2 | 0.00 | 0.03 | 0.00 | 58 | 1022.0 |
| 20260503230037 | 10 | 0 | 0.0 | 0.0 | 0.00 | 0.03 | 0.00 | 59 | 1022.0 |
| 20260503225137 | 10 | 292 | 0.0 | 3.2 | 0.00 | 0.03 | 0.00 | 58 | 1022.1 |
| 20260503223337 | 11 | 309 | 1.6 | 6.4 | 0.00 | 0.13 | 0.00 | 56 | 1021.9 |
| 20260503221537 | 11 | 306 | 4.8 | 17.7 | 0.00 | 0.13 | 0.00 | 54 | 1022.0 |
| 20260503220637 | 11 | 302 | 8.0 | 20.9 | 0.00 | 0.13 | 0.00 | 54 | 1022.0 |
| 20260503214837 | 11 | 300 | 12.9 | 25.7 | 0.00 | 0.13 | 0.00 | 54 | 1022.1 |
| 20260503213937 | 11 | 304 | 4.8 | 14.5 | 0.00 | 0.13 | 0.00 | 55 | 1022.1 |
| 20260503212137 | 11 | 303 | 6.4 | 17.7 | 0.00 | 0.13 | 0.00 | 56 | 1022.0 |
| 20260503211237 | 11 | 305 | 3.2 | 17.7 | 0.00 | 0.13 | 0.00 | 56 | 1022.0 |
| 20260503210337 | 11 | 307 | 8.0 | 12.9 | 0.00 | 0.13 | 0.00 | 55 | 1022.0 |
| 20260503204537 | 11 | 305 | 6.4 | 14.5 | 0.00 | 0.13 | 0.13 | 56 | 1022.0 |
| 20260503203637 | 11 | 308 | 9.7 | 17.7 | 0.00 | 0.13 | 0.13 | 56 | 1022.0 |
| 20260503202737 | 11 | 299 | 12.9 | 17.7 | 0.00 | 0.13 | 0.13 | 56 | 1022.0 |
| 20260503201837 | 11 | 300 | 6.4 | 24.1 | 0.00 | 0.13 | 0.13 | 56 | 1022.2 |
| 20260503200937 | 11 | 312 | 11.3 | 22.5 | 0.00 | 0.13 | 0.13 | 56 | 1022.1 |
| 20260503200037 | 11 | 300 | 11.3 | 17.7 | 0.00 | 0.13 | 0.13 | 56 | 1022.1 |
| 20260503195137 | 12 | 306 | 8.0 | 17.7 | 0.00 | 0.13 | 0.13 | 56 | 1022.1 |
| 20260503194237 | 12 | 295 | 6.4 | 14.5 | 0.00 | 0.13 | 0.13 | 55 | 1022.2 |
| 20260503191537 | 12 | 304 | 8.0 | 17.7 | 0.00 | 0.13 | 0.13 | 54 | 1022.1 |
| 20260503190637 | 12 | 297 | 6.4 | 17.7 | 0.00 | 0.13 | 0.13 | 53 | 1022.0 |
| 20260503185737 | 12 | 310 | 11.3 | 22.5 | 0.00 | 0.13 | 0.13 | 52 | 1021.9 |
| 20260503184837 | 12 | 309 | 12.9 | 25.7 | 0.00 | 0.13 | 0.13 | 51 | 1021.8 |
| 20260503183937 | 12 | 311 | 17.7 | 33.8 | 0.00 | 0.13 | 0.13 | 51 | 1021.7 |
| 20260503183037 | 12 | 306 | 6.4 | 25.7 | 0.00 | 0.13 | 0.13 | 51 | 1021.4 |
| 20260503182137 | 12 | 308 | 12.9 | 24.1 | 0.00 | 0.13 | 0.13 | 52 | 1021.2 |
| 20260503181237 | 12 | 299 | 16.1 | 25.7 | 0.00 | 0.13 | 0.13 | 52 | 1021.0 |
| 20260503175437 | 12 | 305 | 12.9 | 29.0 | 0.00 | 0.13 | 0.13 | 53 | 1021.0 |
| 20260503174537 | 12 | 299 | 16.1 | 27.4 | 0.00 | 0.13 | 0.13 | 53 | 1020.8 |
| 20260503172737 | 12 | 313 | 9.7 | 24.1 | 0.00 | 0.13 | 0.13 | 51 | 1020.7 |
| 20260503171837 | 12 | 319 | 17.7 | 29.0 | 0.00 | 0.13 | 0.13 | 51 | 1020.7 |
| 20260503170937 | 13 | 309 | 11.3 | 24.1 | 0.00 | 0.13 | 0.13 | 50 | 1020.6 |
| 20260503150337 | 15 | 309 | 8.0 | 29.0 | 0.00 | 0.13 | 0.13 | 45 | 1019.3 |
| 20260503090337 | 12 | 316 | 19.3 | 38.6 | 0.00 | 0.13 | 0.13 | 55 | 1019.4 |